Time,TemperatureF,DewpointF,PressureIn,WindDirection,WindDirectionDegrees,WindSpeedMPH,WindSpeedGustMPH,Humidity,HourlyPrecipIn,Conditions,Clouds,dailyrainin,SoftwareType,DateUTC
2013-04-28 00:01:00,63.7,63.1,29.99,SE,139,0.0,0.0,98,0.00,,---,0.00,VWS V14.01,2013-04-28 05:01:00,
2013-04-28 00:06:00,63.5,62.9,29.99,SE,139,0.0,0.0,98,0.00,,---,0.00,VWS V14.01,2013-04-28 05:06:00,
2013-04-28 00:11:00,63.7,63.1,29.99,SE,138,0.0,0.0,98,0.00,,---,0.00,VWS V14.01,2013-04-28 05:11:00,
2013-04-28 00:16:00,63.7,63.1,29.99,SE,139,0.0,0.0,98,0.00,,---,0.00,VWS V14.01,2013-04-28 05:16:00,
2013-04-28 00:21:00,63.6,63.0,29.99,SE,138,0.0,0.0,98,0.00,,---,0.00,VWS V14.01,2013-04-28 05:21:00,
2013-04-28 00:26:00,63.4,62.8,29.98,SE,139,0.0,0.0,98,0.00,,---,0.00,VWS V14.01,2013-04-28 05:26:00,
2013-04-28 00:30:00,63.2,62.6,29.99,SE,139,0.0,0.0,98,0.00,,---,0.00,VWS V14.01,2013-04-28 05:30:00,
2013-04-28 00:35:00,63.1,62.5,29.98,SE,138,0.0,0.0,98,0.00,,---,0.00,VWS V14.01,2013-04-28 05:35:00,
2013-04-28 00:40:00,63.1,62.5,29.98,SE,139,0.0,0.0,98,0.00,,---,0.00,VWS V14.01,2013-04-28 05:40:00,
2013-04-28 00:45:00,63.1,62.5,29.98,SE,139,0.0,0.0,98,0.00,,---,0.00,VWS V14.01,2013-04-28 05:45:00,
2013-04-28 00:50:00,63.0,62.4,29.98,SE,138,0.0,0.0,98,0.00,,---,0.00,VWS V14.01,2013-04-28 05:50:00,
2013-04-28 00:55:00,62.9,62.3,29.98,SE,138,0.0,0.0,98,0.00,,---,0.00,VWS V14.01,2013-04-28 05:55:00,
2013-04-28 01:00:00,62.9,62.3,29.98,SE,139,0.0,0.0,98,0.00,,---,0.00,VWS V14.01,2013-04-28 06:00:00,
2013-04-28 01:05:00,62.8,62.2,29.98,SE,139,0.0,0.0,98,0.00,,---,0.00,VWS V14.01,2013-04-28 06:05:00,
2013-04-28 01:10:00,62.7,62.1,29.98,SE,139,0.0,0.0,98,0.00,,---,0.00,VWS V14.01,2013-04-28 06:10:00,
2013-04-28 01:15:00,62.7,62.1,29.98,SE,139,0.0,0.0,98,0.00,,---,0.00,VWS V14.01,2013-04-28 06:15:00,
2013-04-28 01:20:00,62.6,62.0,29.98,SE,138,0.0,0.0,98,0.00,,---,0.00,VWS V14.01,2013-04-28 06:20:00,
2013-04-28 01:25:00,62.7,62.1,29.97,SE,139,0.0,0.0,98,0.00,,---,0.00,VWS V14.01,2013-04-28 06:25:00,
2013-04-28 01:30:00,62.8,62.2,29.97,SE,138,0.0,0.0,98,0.00,,---,0.00,VWS V14.01,2013-04-28 06:30:00,
2013-04-28 01:35:00,62.9,62.3,29.96,SE,138,0.0,0.0,98,0.00,,---,0.00,VWS V14.01,2013-04-28 06:35:00,
2013-04-28 01:40:00,62.9,62.3,29.96,SE,139,0.0,0.0,98,0.00,,---,0.00,VWS V14.01,2013-04-28 06:40:00,
2013-04-28 01:45:00,62.8,62.2,29.96,SE,139,0.0,0.0,98,0.00,,---,0.00,VWS V14.01,2013-04-28 06:45:00,
2013-04-28 01:50:00,62.9,62.3,29.97,SE,138,0.0,0.0,98,0.00,,---,0.00,VWS V14.01,2013-04-28 06:50:00,
2013-04-28 01:55:00,62.8,62.2,29.97,SE,138,0.0,0.0,98,0.00,,---,0.00,VWS V14.01,2013-04-28 06:55:00,
2013-04-28 02:00:00,62.8,62.2,29.97,SE,139,0.0,0.0,98,0.00,,---,0.00,VWS V14.01,2013-04-28 07:00:00,
2013-04-28 02:05:00,62.7,62.1,29.97,SE,138,0.0,0.0,98,0.00,,---,0.00,VWS V14.01,2013-04-28 07:05:00,
2013-04-28 02:10:00,62.7,62.1,29.97,SE,139,0.0,0.0,98,0.00,,---,0.00,VWS V14.01,2013-04-28 07:10:00,
2013-04-28 02:15:00,62.6,62.0,29.97,SE,139,0.0,0.0,98,0.00,,---,0.00,VWS V14.01,2013-04-28 07:15:00,
2013-04-28 02:20:00,62.7,62.1,29.97,SE,139,0.0,0.0,98,0.00,,---,0.00,VWS V14.01,2013-04-28 07:20:00,
2013-04-28 02:25:00,62.7,62.1,29.98,SE,138,0.0,0.0,98,0.00,,---,0.00,VWS V14.01,2013-04-28 07:25:00,
2013-04-28 02:30:00,62.8,62.2,29.98,SE,139,0.0,0.0,98,0.00,,---,0.00,VWS V14.01,2013-04-28 07:30:00,
2013-04-28 02:35:00,63.0,62.4,29.97,SE,139,0.0,0.0,98,0.00,,---,0.00,VWS V14.01,2013-04-28 07:35:00,
2013-04-28 02:40:00,63.2,62.6,29.97,SE,138,0.0,0.0,98,0.00,,---,0.00,VWS V14.01,2013-04-28 07:40:00,
2013-04-28 02:45:00,63.3,62.7,29.97,SE,138,0.0,0.0,98,0.00,,---,0.00,VWS V14.01,2013-04-28 07:45:00,
2013-04-28 02:50:00,63.4,63.1,29.97,SE,139,0.0,0.0,99,0.00,,---,0.00,VWS V14.01,2013-04-28 07:50:00,
2013-04-28 02:55:00,63.6,63.3,29.97,SE,139,0.0,0.0,99,0.00,,---,0.00,VWS V14.01,2013-04-28 07:55:00,
2013-04-28 03:00:00,63.7,63.4,29.97,SE,138,0.0,0.0,99,0.00,,---,0.00,VWS V14.01,2013-04-28 08:00:00,
2013-04-28 03:05:00,63.9,63.6,29.96,SE,138,0.0,0.0,99,0.00,,---,0.00,VWS V14.01,2013-04-28 08:05:00,
2013-04-28 03:10:00,64.0,63.7,29.96,SE,139,0.0,0.0,99,0.00,,---,0.00,VWS V14.01,2013-04-28 08:10:00,
2013-04-28 03:15:00,64.1,63.8,29.96,SE,139,0.0,0.0,99,0.00,,---,0.00,VWS V14.01,2013-04-28 08:15:00,
2013-04-28 03:20:00,64.2,63.9,29.96,SE,138,0.0,0.0,99,0.00,,---,0.00,VWS V14.01,2013-04-28 08:20:00,
2013-04-28 03:25:00,64.3,64.0,29.96,SE,138,0.0,0.0,99,0.00,,---,0.00,VWS V14.01,2013-04-28 08:25:00,
2013-04-28 03:30:00,64.4,64.1,29.96,SE,139,0.0,0.0,99,0.00,,---,0.00,VWS V14.01,2013-04-28 08:30:00,
2013-04-28 03:35:00,64.5,64.2,29.96,SE,139,0.0,0.0,99,0.00,,---,0.00,VWS V14.01,2013-04-28 08:35:00,
2013-04-28 03:40:00,64.6,64.3,29.96,SE,139,0.0,0.0,99,0.00,,---,0.00,VWS V14.01,2013-04-28 08:40:00,
2013-04-28 03:45:00,64.6,64.3,29.96,SE,139,0.0,0.0,99,0.00,,---,0.00,VWS V14.01,2013-04-28 08:45:00,
2013-04-28 03:50:00,64.7,64.4,29.96,SE,138,0.0,0.0,99,0.00,,---,0.00,VWS V14.01,2013-04-28 08:50:00,
2013-04-28 03:55:00,64.9,64.6,29.96,SE,138,0.0,0.0,99,0.00,,---,0.00,VWS V14.01,2013-04-28 08:55:00,
2013-04-28 04:00:00,64.9,64.6,29.95,SE,138,0.0,0.0,99,0.00,,---,0.00,VWS V14.01,2013-04-28 09:00:00,
2013-04-28 04:05:00,65.0,64.7,29.96,SE,139,0.0,0.0,99,0.00,,---,0.00,VWS V14.01,2013-04-28 09:05:00,
2013-04-28 04:10:00,65.1,64.8,29.95,SE,138,0.0,0.0,99,0.00,,---,0.00,VWS V14.01,2013-04-28 09:10:00,
2013-04-28 04:15:00,65.1,64.8,29.95,SE,138,0.0,0.0,99,0.00,,---,0.00,VWS V14.01,2013-04-28 09:15:00,
2013-04-28 04:20:00,65.2,64.9,29.95,SE,139,0.0,0.0,99,0.00,,---,0.00,VWS V14.01,2013-04-28 09:20:00,
2013-04-28 04:25:00,65.3,65.0,29.95,SE,139,0.0,0.0,99,0.00,,---,0.00,VWS V14.01,2013-04-28 09:25:00,
2013-04-28 04:30:00,65.3,65.0,29.95,SE,139,0.0,0.0,99,0.00,,---,0.00,VWS V14.01,2013-04-28 09:30:00,
2013-04-28 04:35:00,65.3,65.0,29.95,SE,138,0.0,0.0,99,0.00,,---,0.00,VWS V14.01,2013-04-28 09:35:00,
2013-04-28 04:40:00,65.4,65.1,29.94,SE,139,0.0,0.0,99,0.00,,---,0.00,VWS V14.01,2013-04-28 09:40:00,
2013-04-28 04:45:00,65.4,65.1,29.94,SE,139,0.0,0.0,99,0.00,,---,0.00,VWS V14.01,2013-04-28 09:45:00,
2013-04-28 04:50:00,65.4,65.1,29.94,SE,138,0.0,0.0,99,0.00,,---,0.00,VWS V14.01,2013-04-28 09:50:00,
2013-04-28 04:55:00,65.5,65.2,29.94,SE,139,0.0,0.0,99,0.00,,---,0.00,VWS V14.01,2013-04-28 09:55:00,
2013-04-28 05:00:00,65.5,65.2,29.94,SE,138,0.0,0.0,99,0.00,,---,0.00,VWS V14.01,2013-04-28 10:00:00,
2013-04-28 05:05:00,65.8,65.5,29.94,SE,138,0.0,0.0,99,0.00,,---,0.00,VWS V14.01,2013-04-28 10:05:00,
2013-04-28 05:10:00,65.8,65.5,29.94,SE,138,0.0,0.0,99,0.00,,---,0.00,VWS V14.01,2013-04-28 10:10:00,
2013-04-28 05:15:00,65.9,65.6,29.94,SE,139,0.0,0.0,99,0.00,,---,0.00,VWS V14.01,2013-04-28 10:15:00,
2013-04-28 05:20:00,65.9,65.6,29.94,SE,139,0.0,0.0,99,0.00,,---,0.00,VWS V14.01,2013-04-28 10:20:00,
2013-04-28 05:25:00,65.9,65.6,29.94,SE,139,0.0,0.0,99,0.00,,---,0.00,VWS V14.01,2013-04-28 10:25:00,
2013-04-28 05:30:00,65.8,65.5,29.94,SE,138,0.0,0.0,99,0.00,,---,0.00,VWS V14.01,2013-04-28 10:30:00,
2013-04-28 05:35:00,65.7,65.4,29.94,SE,138,0.0,0.0,99,0.00,,---,0.00,VWS V14.01,2013-04-28 10:35:00,
2013-04-28 05:40:00,65.7,65.4,29.94,SE,139,0.0,0.0,99,0.00,,---,0.00,VWS V14.01,2013-04-28 10:40:00,
2013-04-28 05:45:00,65.7,65.4,29.94,SE,138,0.0,0.0,99,0.00,,---,0.00,VWS V14.01,2013-04-28 10:45:00,
2013-04-28 05:50:00,65.7,65.4,29.94,SE,139,0.0,0.0,99,0.00,,---,0.00,VWS V14.01,2013-04-28 10:50:00,
2013-04-28 05:55:00,65.7,65.4,29.94,SE,139,0.0,0.0,99,0.00,,---,0.00,VWS V14.01,2013-04-28 10:55:00,
2013-04-28 06:00:00,65.6,65.3,29.94,SE,139,0.0,0.0,99,0.00,,---,0.00,VWS V14.01,2013-04-28 11:00:00,
2013-04-28 06:05:00,65.5,65.2,29.94,SE,139,0.0,0.0,99,0.00,,---,0.00,VWS V14.01,2013-04-28 11:05:00,
2013-04-28 06:10:00,65.5,65.2,29.94,SE,139,0.0,0.0,99,0.00,,---,0.00,VWS V14.01,2013-04-28 11:10:00,
2013-04-28 06:15:00,65.4,65.1,29.95,SE,138,0.0,0.0,99,0.00,,---,0.00,VWS V14.01,2013-04-28 11:15:00,
2013-04-28 06:19:00,65.4,65.1,29.95,SE,139,0.0,0.0,99,0.00,,---,0.00,VWS V14.01,2013-04-28 11:19:00,
2013-04-28 06:24:00,65.5,65.2,29.95,SE,139,0.0,0.0,99,0.00,,---,0.00,VWS V14.01,2013-04-28 11:24:00,
2013-04-28 06:29:00,65.6,65.3,29.95,SE,139,0.0,0.0,99,0.00,,---,0.00,VWS V14.01,2013-04-28 11:29:00,
2013-04-28 06:34:00,65.9,65.6,29.95,SE,139,0.0,0.0,99,0.00,,---,0.00,VWS V14.01,2013-04-28 11:34:00,
2013-04-28 06:39:00,66.2,65.9,29.95,SE,138,0.0,0.0,99,0.00,,---,0.00,VWS V14.01,2013-04-28 11:39:00,
2013-04-28 06:44:00,66.1,65.8,29.95,SE,138,0.0,0.0,99,0.00,,---,0.00,VWS V14.01,2013-04-28 11:44:00,
2013-04-28 06:49:00,66.1,65.8,29.95,SE,139,0.0,0.0,99,0.00,,---,0.00,VWS V14.01,2013-04-28 11:49:00,
2013-04-28 06:54:00,66.3,66.0,29.95,SE,139,0.0,0.0,99,0.00,,---,0.00,VWS V14.01,2013-04-28 11:54:00,
2013-04-28 06:59:00,66.4,66.1,29.95,SE,138,0.0,0.0,99,0.00,,---,0.00,VWS V14.01,2013-04-28 11:59:00,
2013-04-28 07:04:00,66.5,66.2,29.95,SE,139,0.0,0.0,99,0.00,,---,0.00,VWS V14.01,2013-04-28 12:04:00,
2013-04-28 07:09:00,66.7,66.4,29.95,SE,139,0.0,0.0,99,0.00,,---,0.00,VWS V14.01,2013-04-28 12:09:00,
2013-04-28 07:14:00,66.9,66.6,29.95,SE,138,0.0,0.0,99,0.00,,---,0.00,VWS V14.01,2013-04-28 12:14:00,
2013-04-28 07:19:00,67.2,66.9,29.95,SE,139,0.0,0.0,99,0.00,,---,0.00,VWS V14.01,2013-04-28 12:19:00,
2013-04-28 07:24:00,67.9,67.6,29.95,SE,139,0.0,0.0,99,0.00,,---,0.00,VWS V14.01,2013-04-28 12:24:00,
2013-04-28 07:29:00,68.6,68.3,29.95,SE,138,0.0,0.0,99,0.00,,---,0.00,VWS V14.01,2013-04-28 12:29:00,
2013-04-28 07:34:00,69.1,68.8,29.95,SE,138,0.0,0.0,99,0.00,,---,0.00,VWS V14.01,2013-04-28 12:34:00,
2013-04-28 07:39:00,69.4,69.1,29.95,SE,138,0.0,0.0,99,0.00,,---,0.00,VWS V14.01,2013-04-28 12:39:00,
2013-04-28 07:44:00,69.7,69.4,29.95,SE,138,0.0,0.0,99,0.00,,---,0.00,VWS V14.01,2013-04-28 12:44:00,
2013-04-28 07:49:00,69.8,69.5,29.95,SE,139,0.0,0.0,99,0.00,,---,0.00,VWS V14.01,2013-04-28 12:49:00,
2013-04-28 07:54:00,69.7,69.4,29.95,SE,139,0.0,0.0,99,0.00,,---,0.00,VWS V14.01,2013-04-28 12:54:00,
2013-04-28 07:59:00,69.8,69.5,29.95,SE,139,0.0,0.0,99,0.00,,---,0.00,VWS V14.01,2013-04-28 12:59:00,
2013-04-28 08:04:00,70.1,69.8,29.95,SE,139,0.0,0.0,99,0.00,,---,0.00,VWS V14.01,2013-04-28 13:04:00,
2013-04-28 08:09:00,70.4,70.1,29.95,SE,139,0.0,0.0,99,0.00,,---,0.00,VWS V14.01,2013-04-28 13:09:00,
2013-04-28 08:14:00,70.9,70.6,29.95,SE,139,0.0,0.0,99,0.00,,---,0.00,VWS V14.01,2013-04-28 13:14:00,
2013-04-28 08:19:00,71.4,71.1,29.95,SE,138,0.0,0.0,99,0.00,,---,0.00,VWS V14.01,2013-04-28 13:19:00,
2013-04-28 08:24:00,72.1,71.8,29.95,SE,138,0.0,0.0,99,0.00,,---,0.00,VWS V14.01,2013-04-28 13:24:00,
2013-04-28 08:29:00,72.6,72.3,29.95,SE,138,0.0,0.0,99,0.00,,---,0.00,VWS V14.01,2013-04-28 13:29:00,
2013-04-28 08:34:00,72.3,72.0,29.95,SSW,194,0.0,0.0,99,0.00,,---,0.00,VWS V14.01,2013-04-28 13:34:00,
2013-04-28 08:39:00,72.7,72.4,29.95,SSW,194,0.0,0.0,99,0.00,,---,0.00,VWS V14.01,2013-04-28 13:39:00,
2013-04-28 08:44:00,73.3,73.0,29.95,SSW,194,0.0,0.0,99,0.00,,---,0.00,VWS V14.01,2013-04-28 13:44:00,
2013-04-28 08:49:00,73.7,73.4,29.95,SSW,194,0.0,0.0,99,0.00,,---,0.00,VWS V14.01,2013-04-28 13:49:00,
2013-04-28 08:54:00,74.1,73.2,29.95,SSW,193,0.0,3.0,97,0.00,,---,0.00,VWS V14.01,2013-04-28 13:54:00,
2013-04-28 08:59:00,74.8,73.6,29.95,SSW,207,0.0,3.0,96,0.00,,---,0.00,VWS V14.01,2013-04-28 13:59:00,
2013-04-28 09:04:00,75.2,73.0,29.95,SSW,212,0.0,1.0,93,0.00,,---,0.00,VWS V14.01,2013-04-28 14:04:00,
2013-04-28 09:09:00,75.6,73.4,29.95,SSW,212,0.0,2.0,93,0.00,,---,0.00,VWS V14.01,2013-04-28 14:09:00,
2013-04-28 09:14:00,75.8,72.3,29.95,SSW,205,0.0,3.0,89,0.00,,---,0.00,VWS V14.01,2013-04-28 14:14:00,
2013-04-28 09:19:00,75.9,72.4,29.95,SW,224,1.0,3.0,89,0.00,,---,0.00,VWS V14.01,2013-04-28 14:19:00,
2013-04-28 09:24:00,76.1,72.6,29.95,SW,225,1.0,3.0,89,0.00,,---,0.00,VWS V14.01,2013-04-28 14:24:00,
2013-04-28 09:29:00,76.2,72.4,29.95,SW,229,1.0,3.0,88,0.00,,---,0.00,VWS V14.01,2013-04-28 14:29:00,
2013-04-28 09:34:00,76.1,71.9,29.95,SW,214,0.0,1.0,87,0.00,,---,0.00,VWS V14.01,2013-04-28 14:34:00,
2013-04-28 09:39:00,76.0,71.9,29.95,SSW,207,0.0,2.0,87,0.00,,---,0.00,VWS V14.01,2013-04-28 14:39:00,
2013-04-28 09:44:00,76.4,72.6,29.95,SW,217,1.0,3.0,88,0.00,,---,0.00,VWS V14.01,2013-04-28 14:44:00,
2013-04-28 09:49:00,76.8,73.0,29.95,SW,222,2.0,3.0,88,0.00,,---,0.00,VWS V14.01,2013-04-28 14:49:00,
2013-04-28 09:54:00,77.4,73.2,29.95,SSW,210,0.0,3.0,87,0.00,,---,0.00,VWS V14.01,2013-04-28 14:54:00,
2013-04-28 09:59:00,77.9,73.0,29.95,SW,229,2.0,3.0,85,0.00,,---,0.00,VWS V14.01,2013-04-28 14:59:00,
2013-04-28 10:04:00,77.5,72.3,29.95,SSW,212,0.0,0.0,84,0.00,,---,0.00,VWS V14.01,2013-04-28 15:04:00,
2013-04-28 10:09:00,77.2,72.0,29.95,SSW,203,1.0,4.0,84,0.00,,---,0.00,VWS V14.01,2013-04-28 15:09:00,
2013-04-28 10:14:00,76.9,72.1,29.95,SSE,163,1.0,4.0,85,0.00,,---,0.00,VWS V14.01,2013-04-28 15:14:00,
2013-04-28 10:19:00,77.0,72.2,29.96,SW,231,1.0,4.0,85,0.00,,---,0.00,VWS V14.01,2013-04-28 15:19:00,
2013-04-28 10:24:00,76.8,71.6,29.96,SSW,204,0.0,4.0,84,0.00,,---,0.00,VWS V14.01,2013-04-28 15:24:00,
2013-04-28 10:29:00,76.7,71.9,29.96,SSW,210,0.0,4.0,85,0.00,,---,0.00,VWS V14.01,2013-04-28 15:29:00,
2013-04-28 10:34:00,76.6,72.1,29.95,SSW,201,2.0,3.0,86,0.00,,---,0.00,VWS V14.01,2013-04-28 15:34:00,
2013-04-28 10:39:00,76.7,72.2,29.95,SSW,212,0.0,3.0,86,0.00,,---,0.00,VWS V14.01,2013-04-28 15:39:00,
2013-04-28 10:44:00,77.0,72.5,29.95,South,191,1.0,3.0,86,0.00,,---,0.00,VWS V14.01,2013-04-28 15:44:00,
2013-04-28 10:49:00,77.2,72.0,29.95,SW,214,2.0,4.0,84,0.00,,---,0.00,VWS V14.01,2013-04-28 15:49:00,
2013-04-28 10:54:00,77.3,72.1,29.95,SW,219,0.0,4.0,84,0.00,,---,0.00,VWS V14.01,2013-04-28 15:54:00,
2013-04-28 10:59:00,77.4,72.2,29.95,SE,140,0.0,4.0,84,0.00,,---,0.00,VWS V14.01,2013-04-28 15:59:00,
2013-04-28 11:04:00,77.4,71.8,29.95,SSW,207,2.0,3.0,83,0.00,,---,0.00,VWS V14.01,2013-04-28 16:04:00,
2013-04-28 11:09:00,77.2,72.0,29.95,SW,222,3.0,3.0,84,0.00,,---,0.00,VWS V14.01,2013-04-28 16:09:00,
2013-04-28 11:14:00,77.2,72.3,29.95,SW,218,0.0,3.0,85,0.00,,---,0.00,VWS V14.01,2013-04-28 16:14:00,
2013-04-28 11:19:00,77.6,73.1,29.95,SW,224,2.0,3.0,86,0.00,,---,0.00,VWS V14.01,2013-04-28 16:19:00,
2013-04-28 11:24:00,78.6,73.4,29.95,SSW,212,2.0,4.0,84,0.00,,---,0.00,VWS V14.01,2013-04-28 16:24:00,
2013-04-28 11:29:00,79.4,73.4,29.94,SW,218,3.0,4.0,82,0.00,,---,0.00,VWS V14.01,2013-04-28 16:29:00,
2013-04-28 11:34:00,80.1,74.1,29.94,SSW,204,0.0,0.0,82,0.00,,---,0.00,VWS V14.01,2013-04-28 16:34:00,
2013-04-28 11:39:00,80.3,73.6,29.94,SSW,198,1.0,3.0,80,0.00,,---,0.00,VWS V14.01,2013-04-28 16:39:00,
2013-04-28 11:44:00,79.6,72.1,29.94,SSW,205,2.0,4.0,78,0.00,,---,0.00,VWS V14.01,2013-04-28 16:44:00,
2013-04-28 11:49:00,79.0,72.3,29.94,SSW,203,0.0,4.0,80,0.00,,---,0.00,VWS V14.01,2013-04-28 16:49:00,
2013-04-28 11:54:00,78.7,72.4,29.94,South,188,1.0,4.0,81,0.00,,---,0.00,VWS V14.01,2013-04-28 16:54:00,
2013-04-28 11:59:00,78.4,72.1,29.94,SW,214,1.0,4.0,81,0.00,,---,0.00,VWS V14.01,2013-04-28 16:59:00,
2013-04-28 12:04:00,78.2,72.6,29.94,SSW,193,2.0,4.0,83,0.00,,---,0.00,VWS V14.01,2013-04-28 17:04:00,
2013-04-28 12:09:00,78.3,72.7,29.95,SW,225,3.0,3.0,83,0.00,,---,0.00,VWS V14.01,2013-04-28 17:09:00,
2013-04-28 12:14:00,78.2,72.3,29.94,SSW,207,1.0,4.0,82,0.00,,---,0.00,VWS V14.01,2013-04-28 17:14:00,
2013-04-28 12:19:00,78.4,72.8,29.94,SSW,195,0.0,4.0,83,0.00,,---,0.00,VWS V14.01,2013-04-28 17:19:00,
2013-04-28 12:24:00,78.1,72.2,29.94,SW,228,0.0,4.0,82,0.00,,---,0.00,VWS V14.01,2013-04-28 17:24:00,
2013-04-28 12:29:00,77.3,71.7,29.94,SSW,212,0.0,4.0,83,0.00,,---,0.00,VWS V14.01,2013-04-28 17:29:00,
2013-04-28 12:34:00,76.8,71.6,29.94,SSW,193,1.0,2.0,84,0.00,,---,0.00,VWS V14.01,2013-04-28 17:34:00,
2013-04-28 12:39:00,76.7,71.9,29.94,SSW,204,0.0,3.0,85,0.00,,---,0.00,VWS V14.01,2013-04-28 17:39:00,
2013-04-28 12:44:00,76.8,72.6,29.94,SSE,156,0.0,3.0,87,0.00,,---,0.00,VWS V14.01,2013-04-28 17:44:00,
2013-04-28 12:49:00,76.6,72.1,29.93,SSW,203,0.0,3.0,86,0.00,,---,0.00,VWS V14.01,2013-04-28 17:49:00,
2013-04-28 12:54:00,76.4,72.2,29.93,SSW,207,1.0,3.0,87,0.00,,---,0.00,VWS V14.01,2013-04-28 17:54:00,
2013-04-28 12:59:00,76.2,72.1,29.93,South,170,0.0,3.0,87,0.00,,---,0.00,VWS V14.01,2013-04-28 17:59:00,
2013-04-28 13:04:00,76.0,71.9,29.93,SSW,212,1.0,4.0,87,0.00,,---,0.00,VWS V14.01,2013-04-28 18:04:00,
2013-04-28 13:08:00,76.0,72.2,29.92,SW,214,0.0,2.0,88,0.00,,---,0.00,VWS V14.01,2013-04-28 18:08:00,
2013-04-28 13:13:00,76.0,72.2,29.92,South,189,0.0,2.0,88,0.00,,---,0.00,VWS V14.01,2013-04-28 18:13:00,
2013-04-28 13:19:00,75.9,72.1,29.93,SW,226,0.0,2.0,88,0.00,,---,0.00,VWS V14.01,2013-04-28 18:19:00,
2013-04-28 13:24:00,75.7,71.9,29.93,SSW,211,0.0,3.0,88,0.00,,---,0.00,VWS V14.01,2013-04-28 18:24:00,
2013-04-28 13:29:00,75.5,72.0,29.94,SE,134,0.0,3.0,89,0.00,,---,0.00,VWS V14.01,2013-04-28 18:29:00,
2013-04-28 13:34:00,75.4,71.9,29.93,SSE,149,0.0,0.0,89,0.00,,---,0.00,VWS V14.01,2013-04-28 18:34:00,
2013-04-28 13:39:00,75.0,71.5,29.93,SSW,205,0.0,2.0,89,0.00,,---,0.00,VWS V14.01,2013-04-28 18:39:00,
2013-04-28 13:44:00,74.8,71.7,29.94,SSW,212,0.0,2.0,90,0.00,,---,0.00,VWS V14.01,2013-04-28 18:44:00,
2013-04-28 13:49:00,74.4,71.3,29.95,West,274,0.0,2.0,90,0.00,,---,0.00,VWS V14.01,2013-04-28 18:49:00,
2013-04-28 13:54:00,72.9,67.4,29.95,NNW,342,0.0,3.0,83,0.00,,---,0.00,VWS V14.01,2013-04-28 18:54:00,
2013-04-28 13:59:00,71.8,66.0,29.95,SSW,208,0.0,3.0,82,0.00,,---,0.00,VWS V14.01,2013-04-28 18:59:00,
2013-04-28 14:04:00,70.5,65.4,29.94,West,264,0.0,3.0,84,0.00,,---,0.00,VWS V14.01,2013-04-28 19:04:00,
2013-04-28 14:08:00,69.2,65.5,29.94,East,87,1.0,3.0,88,0.00,,---,0.00,VWS V14.01,2013-04-28 19:08:00,
2013-04-28 14:13:00,68.2,64.8,29.94,SE,125,0.0,3.0,89,0.00,,---,0.00,VWS V14.01,2013-04-28 19:13:00,
2013-04-28 14:18:00,67.5,64.5,29.94,East,94,0.0,3.0,90,0.01,,---,0.01,VWS V14.01,2013-04-28 19:18:00,
2013-04-28 14:23:00,66.9,64.5,29.94,East,86,0.0,3.0,92,0.02,,---,0.02,VWS V14.01,2013-04-28 19:23:00,
2013-04-28 14:28:00,66.7,64.6,29.93,North,354,0.0,3.0,93,0.04,,---,0.04,VWS V14.01,2013-04-28 19:28:00,
2013-04-28 14:33:00,66.6,64.8,29.92,SSW,207,0.0,0.0,94,0.05,,---,0.05,VWS V14.01,2013-04-28 19:33:00,
2013-04-28 14:38:00,66.6,65.1,29.92,SW,226,0.0,1.0,95,0.05,,---,0.05,VWS V14.01,2013-04-28 19:38:00,
2013-04-28 14:43:00,66.7,65.2,29.92,NW,326,0.0,1.0,95,0.05,,---,0.05,VWS V14.01,2013-04-28 19:43:00,
2013-04-28 14:48:00,66.9,65.7,29.91,NNW,343,0.0,1.0,96,0.05,,---,0.05,VWS V14.01,2013-04-28 19:48:00,
2013-04-28 14:53:00,67.2,66.0,29.91,WSW,255,0.0,1.0,96,0.05,,---,0.05,VWS V14.01,2013-04-28 19:53:00,
2013-04-28 14:58:00,67.4,66.2,29.91,WSW,255,0.0,1.0,96,0.05,,---,0.05,VWS V14.01,2013-04-28 19:58:00,
2013-04-28 15:03:00,67.8,66.6,29.91,WSW,255,0.0,0.0,96,0.05,,---,0.05,VWS V14.01,2013-04-28 20:03:00,
2013-04-28 15:08:00,68.0,66.5,29.91,WSW,257,0.0,0.0,95,0.00,,---,0.05,VWS V14.01,2013-04-28 20:08:00,
2013-04-28 15:13:00,68.2,66.7,29.91,WSW,257,0.0,0.0,95,0.00,,---,0.05,VWS V14.01,2013-04-28 20:13:00,
2013-04-28 15:18:00,68.4,66.6,29.91,WSW,257,0.0,0.0,94,0.00,,---,0.05,VWS V14.01,2013-04-28 20:18:00,
2013-04-28 15:23:00,68.6,66.8,29.90,WSW,257,0.0,0.0,94,0.00,,---,0.05,VWS V14.01,2013-04-28 20:23:00,
2013-04-28 15:28:00,68.9,67.1,29.90,WSW,257,0.0,0.0,94,0.00,,---,0.05,VWS V14.01,2013-04-28 20:28:00,
2013-04-28 15:33:00,69.0,66.9,29.91,SW,225,0.0,0.0,93,0.00,,---,0.05,VWS V14.01,2013-04-28 20:33:00,
2013-04-28 15:38:00,69.0,66.9,29.91,SW,225,0.0,0.0,93,0.00,,---,0.05,VWS V14.01,2013-04-28 20:38:00,
2013-04-28 15:43:00,69.6,67.5,29.90,SW,225,0.0,0.0,93,0.00,,---,0.05,VWS V14.01,2013-04-28 20:43:00,
2013-04-28 15:48:00,70.6,68.8,29.90,SW,225,0.0,0.0,94,0.00,,---,0.05,VWS V14.01,2013-04-28 20:48:00,
2013-04-28 15:53:00,71.6,69.2,29.89,SW,225,0.0,0.0,92,0.00,,---,0.05,VWS V14.01,2013-04-28 20:53:00,
2013-04-28 15:58:00,72.0,67.9,29.89,NW,307,0.0,1.0,87,0.00,,---,0.05,VWS V14.01,2013-04-28 20:58:00,
2013-04-28 16:03:00,72.4,69.3,29.89,NW,307,0.0,1.0,90,0.00,,---,0.05,VWS V14.01,2013-04-28 21:03:00,
2013-04-28 16:08:00,72.5,69.4,29.89,NW,307,0.0,0.0,90,0.00,,---,0.05,VWS V14.01,2013-04-28 21:08:00,
2013-04-28 16:13:00,72.4,69.0,29.89,NW,307,0.0,0.0,89,0.00,,---,0.05,VWS V14.01,2013-04-28 21:13:00,
2013-04-28 16:18:00,72.3,69.2,29.88,NW,307,0.0,0.0,90,0.00,,---,0.05,VWS V14.01,2013-04-28 21:18:00,
2013-04-28 16:23:00,72.2,69.1,29.88,NW,307,0.0,0.0,90,0.00,,---,0.05,VWS V14.01,2013-04-28 21:23:00,
2013-04-28 16:28:00,72.0,68.9,29.89,NW,308,0.0,0.0,90,0.00,,---,0.05,VWS V14.01,2013-04-28 21:28:00,
2013-04-28 16:33:00,71.8,68.7,29.88,NW,307,0.0,0.0,90,0.00,,---,0.05,VWS V14.01,2013-04-28 21:33:00,
2013-04-28 16:38:00,71.6,69.2,29.88,NW,307,0.0,0.0,92,0.00,,---,0.05,VWS V14.01,2013-04-28 21:38:00,
2013-04-28 16:43:00,71.6,68.5,29.88,NW,307,0.0,0.0,90,0.00,,---,0.05,VWS V14.01,2013-04-28 21:43:00,
2013-04-28 16:48:00,71.6,68.5,29.88,NW,307,0.0,0.0,90,0.00,,---,0.05,VWS V14.01,2013-04-28 21:48:00,
2013-04-28 16:53:00,71.9,68.8,29.89,NW,307,0.0,0.0,90,0.00,,---,0.05,VWS V14.01,2013-04-28 21:53:00,
2013-04-28 16:58:00,72.0,68.6,29.88,NW,307,0.0,0.0,89,0.00,,---,0.05,VWS V14.01,2013-04-28 21:58:00,
2013-04-28 17:03:00,72.0,68.9,29.88,NW,307,0.0,0.0,90,0.00,,---,0.05,VWS V14.01,2013-04-28 22:03:00,
2013-04-28 17:08:00,72.0,68.6,29.88,NW,307,0.0,0.0,89,0.00,,---,0.05,VWS V14.01,2013-04-28 22:08:00,
2013-04-28 17:13:00,71.9,68.5,29.88,NW,307,0.0,0.0,89,0.00,,---,0.05,VWS V14.01,2013-04-28 22:13:00,
2013-04-28 17:18:00,72.0,68.9,29.88,NW,308,0.0,0.0,90,0.00,,---,0.05,VWS V14.01,2013-04-28 22:18:00,
2013-04-28 17:23:00,72.2,68.8,29.88,NW,307,0.0,0.0,89,0.00,,---,0.05,VWS V14.01,2013-04-28 22:23:00,
2013-04-28 17:28:00,72.2,69.4,29.88,NW,308,0.0,0.0,91,0.00,,---,0.05,VWS V14.01,2013-04-28 22:28:00,
2013-04-28 17:33:00,72.2,69.4,29.88,NW,307,0.0,0.0,91,0.00,,---,0.05,VWS V14.01,2013-04-28 22:33:00,
2013-04-28 17:38:00,72.3,69.8,29.88,NW,308,0.0,0.0,92,0.00,,---,0.05,VWS V14.01,2013-04-28 22:38:00,
2013-04-28 17:43:00,72.3,69.5,29.88,NW,308,0.0,0.0,91,0.00,,---,0.05,VWS V14.01,2013-04-28 22:43:00,
2013-04-28 17:48:00,72.1,69.3,29.87,NW,308,0.0,0.0,91,0.00,,---,0.05,VWS V14.01,2013-04-28 22:48:00,
2013-04-28 17:53:00,72.1,69.7,29.87,NW,308,0.0,0.0,92,0.00,,---,0.05,VWS V14.01,2013-04-28 22:53:00,
2013-04-28 17:58:00,72.0,69.6,29.88,NW,307,0.0,0.0,92,0.00,,---,0.05,VWS V14.01,2013-04-28 22:58:00,
2013-04-28 18:03:00,71.8,69.3,29.88,NW,308,0.0,0.0,92,0.00,,---,0.05,VWS V14.01,2013-04-28 23:03:00,
2013-04-28 18:08:00,71.4,69.3,29.88,NW,308,0.0,0.0,93,0.00,,---,0.05,VWS V14.01,2013-04-28 23:08:00,
2013-04-28 18:13:00,71.0,68.9,29.88,NW,308,0.0,0.0,93,0.00,,---,0.05,VWS V14.01,2013-04-28 23:13:00,
2013-04-28 18:18:00,70.7,68.6,29.88,NW,308,0.0,0.0,93,0.00,,---,0.05,VWS V14.01,2013-04-28 23:18:00,
2013-04-28 18:23:00,70.6,68.5,29.88,NW,308,0.0,0.0,93,0.00,,---,0.05,VWS V14.01,2013-04-28 23:23:00,
2013-04-28 18:28:00,70.6,68.5,29.88,NW,307,0.0,0.0,93,0.00,,---,0.05,VWS V14.01,2013-04-28 23:28:00,
2013-04-28 18:33:00,70.5,68.7,29.87,NW,307,0.0,0.0,94,0.00,,---,0.05,VWS V14.01,2013-04-28 23:33:00,
2013-04-28 18:38:00,70.2,68.4,29.87,NW,308,0.0,0.0,94,0.00,,---,0.05,VWS V14.01,2013-04-28 23:38:00,
2013-04-28 18:43:00,70.1,68.3,29.87,NW,307,0.0,0.0,94,0.00,,---,0.05,VWS V14.01,2013-04-28 23:43:00,
2013-04-28 18:48:00,70.0,68.5,29.87,NW,308,0.0,0.0,95,0.00,,---,0.05,VWS V14.01,2013-04-28 23:48:00,
2013-04-28 18:53:00,69.9,68.4,29.88,NW,307,0.0,0.0,95,0.00,,---,0.05,VWS V14.01,2013-04-28 23:53:00,
2013-04-28 18:58:00,69.8,68.3,29.87,NW,308,0.0,0.0,95,0.00,,---,0.05,VWS V14.01,2013-04-28 23:58:00,
2013-04-28 19:03:00,69.7,68.2,29.87,NW,307,0.0,0.0,95,0.00,,---,0.05,VWS V14.01,2013-04-29 00:03:00,
2013-04-28 19:08:00,69.6,68.1,29.87,NW,308,0.0,0.0,95,0.00,,---,0.05,VWS V14.01,2013-04-29 00:08:00,
2013-04-28 19:13:00,69.4,67.9,29.87,NW,307,0.0,0.0,95,0.00,,---,0.05,VWS V14.01,2013-04-29 00:13:00,
2013-04-28 19:18:00,69.2,67.7,29.87,NW,307,0.0,0.0,95,0.00,,---,0.05,VWS V14.01,2013-04-29 00:18:00,
2013-04-28 19:23:00,69.0,67.5,29.87,NW,308,0.0,0.0,95,0.00,,---,0.05,VWS V14.01,2013-04-29 00:23:00,
2013-04-28 19:28:00,68.8,67.3,29.87,NW,308,0.0,0.0,95,0.00,,---,0.05,VWS V14.01,2013-04-29 00:28:00,
2013-04-28 19:33:00,68.7,67.5,29.87,NW,307,0.0,0.0,96,0.00,,---,0.05,VWS V14.01,2013-04-29 00:33:00,
2013-04-28 19:38:00,68.6,67.4,29.88,NW,307,0.0,0.0,96,0.00,,---,0.05,VWS V14.01,2013-04-29 00:38:00,
2013-04-28 19:43:00,68.5,67.3,29.88,NW,308,0.0,0.0,96,0.00,,---,0.05,VWS V14.01,2013-04-29 00:43:00,
2013-04-28 19:48:00,68.4,67.2,29.88,NW,308,0.0,0.0,96,0.00,,---,0.05,VWS V14.01,2013-04-29 00:48:00,
2013-04-28 19:53:00,68.3,67.1,29.88,NW,308,0.0,0.0,96,0.00,,---,0.05,VWS V14.01,2013-04-29 00:53:00,
2013-04-28 19:58:00,68.2,67.0,29.89,NW,308,0.0,0.0,96,0.00,,---,0.05,VWS V14.01,2013-04-29 00:58:00,
2013-04-28 20:03:00,68.1,67.2,29.89,NW,307,0.0,0.0,97,0.00,,---,0.05,VWS V14.01,2013-04-29 01:03:00,
2013-04-28 20:08:00,68.1,67.2,29.89,NW,308,0.0,0.0,97,0.00,,---,0.05,VWS V14.01,2013-04-29 01:08:00,
2013-04-28 20:13:00,68.0,67.1,29.89,NW,307,0.0,0.0,97,0.00,,---,0.05,VWS V14.01,2013-04-29 01:13:00,
2013-04-28 20:18:00,68.0,67.1,29.89,NW,308,0.0,0.0,97,0.00,,---,0.05,VWS V14.01,2013-04-29 01:18:00,
2013-04-28 20:23:00,68.0,67.1,29.89,NW,308,0.0,0.0,97,0.00,,---,0.05,VWS V14.01,2013-04-29 01:23:00,
2013-04-28 20:28:00,67.9,67.0,29.89,NW,308,0.0,0.0,97,0.00,,---,0.05,VWS V14.01,2013-04-29 01:28:00,
2013-04-28 20:33:00,67.9,67.0,29.89,NW,307,0.0,0.0,97,0.00,,---,0.05,VWS V14.01,2013-04-29 01:33:00,
2013-04-28 20:38:00,67.8,66.9,29.89,NW,308,0.0,0.0,97,0.00,,---,0.05,VWS V14.01,2013-04-29 01:38:00,
2013-04-28 20:43:00,67.7,66.8,29.89,NW,307,0.0,0.0,97,0.00,,---,0.05,VWS V14.01,2013-04-29 01:43:00,
2013-04-28 20:48:00,67.7,66.8,29.90,NW,308,0.0,0.0,97,0.00,,---,0.05,VWS V14.01,2013-04-29 01:48:00,
2013-04-28 20:53:00,67.6,66.7,29.90,NW,308,0.0,0.0,97,0.00,,---,0.05,VWS V14.01,2013-04-29 01:53:00,
2013-04-28 20:58:00,67.5,66.6,29.90,NW,308,0.0,0.0,97,0.00,,---,0.05,VWS V14.01,2013-04-29 01:58:00,
2013-04-28 21:03:00,67.5,66.6,29.90,NW,308,0.0,0.0,97,0.00,,---,0.05,VWS V14.01,2013-04-29 02:03:00,
2013-04-28 21:08:00,67.4,66.5,29.90,NW,308,0.0,0.0,97,0.00,,---,0.05,VWS V14.01,2013-04-29 02:08:00,
2013-04-28 21:13:00,67.4,66.5,29.90,NW,307,0.0,0.0,97,0.00,,---,0.05,VWS V14.01,2013-04-29 02:13:00,
2013-04-28 21:18:00,67.4,66.5,29.91,NW,307,0.0,0.0,97,0.00,,---,0.05,VWS V14.01,2013-04-29 02:18:00,
2013-04-28 21:23:00,67.3,66.7,29.91,NW,307,0.0,0.0,98,0.00,,---,0.05,VWS V14.01,2013-04-29 02:23:00,
2013-04-28 21:28:00,67.4,66.8,29.91,NW,307,0.0,0.0,98,0.00,,---,0.05,VWS V14.01,2013-04-29 02:28:00,
2013-04-28 21:33:00,67.4,66.8,29.92,NW,308,0.0,0.0,98,0.00,,---,0.05,VWS V14.01,2013-04-29 02:33:00,
2013-04-28 21:38:00,67.4,66.8,29.92,NW,307,0.0,0.0,98,0.00,,---,0.05,VWS V14.01,2013-04-29 02:38:00,
2013-04-28 21:43:00,67.4,66.8,29.91,NW,307,0.0,0.0,98,0.00,,---,0.05,VWS V14.01,2013-04-29 02:43:00,
2013-04-28 21:48:00,67.5,66.9,29.92,NW,308,0.0,0.0,98,0.00,,---,0.05,VWS V14.01,2013-04-29 02:48:00,
2013-04-28 21:53:00,67.4,66.8,29.91,NW,308,0.0,0.0,98,0.00,,---,0.05,VWS V14.01,2013-04-29 02:53:00,
2013-04-28 21:58:00,67.4,66.8,29.91,NW,308,0.0,0.0,98,0.00,,---,0.05,VWS V14.01,2013-04-29 02:58:00,
2013-04-28 22:03:00,67.3,66.7,29.91,NW,307,0.0,0.0,98,0.00,,---,0.05,VWS V14.01,2013-04-29 03:03:00,
2013-04-28 22:08:00,67.2,66.6,29.91,NW,308,0.0,0.0,98,0.00,,---,0.05,VWS V14.01,2013-04-29 03:08:00,
2013-04-28 22:13:00,67.3,66.7,29.90,NW,307,0.0,0.0,98,0.00,,---,0.05,VWS V14.01,2013-04-29 03:13:00,
2013-04-28 22:18:00,67.3,66.7,29.90,NW,307,0.0,0.0,98,0.00,,---,0.05,VWS V14.01,2013-04-29 03:18:00,
2013-04-28 22:23:00,67.2,66.6,29.91,NW,308,0.0,0.0,98,0.00,,---,0.05,VWS V14.01,2013-04-29 03:23:00,
2013-04-28 22:28:00,67.1,66.5,29.91,NW,307,0.0,0.0,98,0.00,,---,0.05,VWS V14.01,2013-04-29 03:28:00,
2013-04-28 22:33:00,67.1,66.5,29.91,NW,307,0.0,0.0,98,0.00,,---,0.05,VWS V14.01,2013-04-29 03:33:00,
2013-04-28 22:38:00,67.1,66.5,29.90,NW,307,0.0,0.0,98,0.00,,---,0.05,VWS V14.01,2013-04-29 03:38:00,
2013-04-28 22:43:00,67.1,66.5,29.89,NW,307,0.0,0.0,98,0.00,,---,0.05,VWS V14.01,2013-04-29 03:43:00,
2013-04-28 22:47:00,67.4,66.8,29.89,NW,307,0.0,0.0,98,0.00,,---,0.05,VWS V14.01,2013-04-29 03:47:00,
2013-04-28 22:52:00,67.3,66.7,29.89,NW,308,0.0,0.0,98,0.00,,---,0.05,VWS V14.01,2013-04-29 03:52:00,
2013-04-28 22:57:00,67.1,66.5,29.89,NW,307,0.0,0.0,98,0.00,,---,0.05,VWS V14.01,2013-04-29 03:57:00,
2013-04-28 23:01:00,67.0,66.4,29.89,NW,307,0.0,0.0,98,0.00,,---,0.05,VWS V14.01,2013-04-29 04:01:00,
2013-04-28 23:06:00,67.1,66.5,29.89,NW,307,0.0,0.0,98,0.00,,---,0.05,VWS V14.01,2013-04-29 04:06:00,
2013-04-28 23:11:00,67.0,66.4,29.89,NW,307,0.0,0.0,98,0.00,,---,0.05,VWS V14.01,2013-04-29 04:11:00,
2013-04-28 23:16:00,67.1,66.5,29.89,NW,308,0.0,0.0,98,0.00,,---,0.05,VWS V14.01,2013-04-29 04:16:00,
2013-04-28 23:21:00,67.2,66.6,29.89,NW,307,0.0,0.0,98,0.00,,---,0.05,VWS V14.01,2013-04-29 04:21:00,
2013-04-28 23:26:00,67.0,66.4,29.89,NW,307,0.0,0.0,98,0.00,,---,0.05,VWS V14.01,2013-04-29 04:26:00,
2013-04-28 23:31:00,66.8,66.2,29.89,NW,308,0.0,0.0,98,0.00,,---,0.05,VWS V14.01,2013-04-29 04:31:00,
2013-04-28 23:36:00,66.7,66.1,29.89,NW,308,0.0,0.0,98,0.00,,---,0.05,VWS V14.01,2013-04-29 04:36:00,
2013-04-28 23:41:00,66.7,66.1,29.89,NW,308,0.0,0.0,98,0.00,,---,0.05,VWS V14.01,2013-04-29 04:41:00,
2013-04-28 23:46:00,66.7,66.1,29.90,NW,307,0.0,0.0,98,0.00,,---,0.05,VWS V14.01,2013-04-29 04:46:00,
2013-04-28 23:51:00,66.7,66.1,29.90,NW,308,0.0,0.0,98,0.00,,---,0.05,VWS V14.01,2013-04-29 04:51:00,
2013-04-28 23:56:00,66.6,66.0,29.90,NW,307,0.0,0.0,98,0.01,,---,0.06,VWS V14.01,2013-04-29 04:56:00,